Tekamah, NE

5:10 AM CDT on March 27, 2017 (GMT -0500)
Tekamah

Weather History for KTQE - April, 2012

Change the Weather History Date:

Wednesday, April 25, 2012

  Actual Average Record
Temperature  
Mean Temperature 72 °F -  
Max Temperature 93 °F 70 °F 95 °F (1989)
Min Temperature 54 °F 42 °F 28 °F (2013)
Cooling Degree Days 8    
Growing Degree Days 22 (Base 50)    
Moisture  
Dew Point 44 °F    
Average Humidity 42    
Maximum Humidity 75    
Minimum Humidity 17    
Precipitation  
Precipitation 0.00 in - - ()
Sea Level Pressure  
Sea Level Pressure 29.56 in    
Wind  
Wind Speed 9 mph (NW)    
Max Wind Speed 29 mph    
Max Gust Speed 38 mph    
Visibility 10 miles    
Events      
Averages and records for this station are not official NWS values.
T = Trace of Precipitation, MM = Missing Value Source: NWS Daily Summary

Daily Weather History Graph

Daily Weather History Graph

Search for Another Location

Airport or City:

Trip Planner

Search our weather history database for the weather conditions in past years. The results will help you decide how hot, cold, wet, or windy it might be!

Date:

Astronomy

Apr. 25, 2012 Rise Set
Actual Time 6:28 AM CDT 8:17 PM CDT
Civil Twilight 5:59 AM CDT 8:46 PM CDT
Nautical Twilight 5:22 AM CDT 9:23 PM CDT
Astronomical Twilight 4:43 AM CDT 10:02 PM CDT
Moon 9:12 AM CDT (4/25) No Moon Set
Length of Visible Light 14h 47m
Length of Day
13h 48m
Waxing Crescent, 17% of the Moon is Illuminated
Apr 25
Waxing Crescent
Apr 29
First Quarter
May 5
Full
May 12
Last Quarter
May 20
New

Hourly Weather History & Observations

Time (CDT) Temp. Dew Point Humidity Pressure Visibility Wind Dir Wind Speed Gust Speed Precip Events Conditions
12:54 AM 59.0 °F 46.0 °F 62% 29.51 in 10.0 mi South 3.5 mph - N/A   Clear
1:54 AM 55.9 °F 44.1 °F 64% 29.49 in 10.0 mi South 3.5 mph - N/A   Clear
2:54 AM 55.9 °F 45.0 °F 67% 29.47 in 10.0 mi Calm Calm - N/A   Clear
3:54 AM 54.0 °F 45.0 °F 72% 29.47 in 10.0 mi Calm Calm - N/A   Clear
4:54 AM 55.9 °F 48.0 °F 75% 29.47 in 10.0 mi WNW 4.6 mph - N/A   Clear
5:07 AM 62.6 °F 48.2 °F 59% 29.55 in 10.0 mi NNW 12.7 mph 33.4 mph N/A   Squalls
5:54 AM 61.0 °F 46.9 °F 60% 29.50 in 10.0 mi North 5.8 mph - N/A   Clear
6:54 AM 60.1 °F 46.9 °F 62% 29.47 in 7.0 mi South 6.9 mph - N/A   Clear
7:54 AM 70.0 °F 50.0 °F 49% 29.50 in 10.0 mi Calm Calm - N/A   Clear
8:54 AM 70.0 °F 48.9 °F 47% 29.51 in 10.0 mi WSW 13.8 mph 17.3 mph N/A   Partly Cloudy
9:54 AM 77.0 °F 48.9 °F 37% 29.51 in 10.0 mi Calm Calm - N/A   Clear
10:54 AM 84.9 °F 48.0 °F 28% 29.52 in 10.0 mi WNW 11.5 mph - N/A   Clear
11:54 AM 88.0 °F 48.0 °F 25% 29.52 in 10.0 mi NW 12.7 mph 23.0 mph N/A   Clear
12:54 PM 91.0 °F 46.0 °F 21% 29.53 in 10.0 mi NNW 27.6 mph 34.5 mph N/A   Clear
2:54 PM 91.0 °F 43.0 °F 19% 29.55 in 10.0 mi North 25.3 mph 35.7 mph N/A   Clear
3:54 PM 91.0 °F 42.1 °F 18% 29.57 in 10.0 mi NNW 25.3 mph 38.0 mph N/A   Clear
4:54 PM 90.0 °F 39.9 °F 17% 29.58 in 10.0 mi NNW 28.8 mph 35.7 mph N/A   Clear
5:54 PM 88.0 °F 37.9 °F 17% 29.60 in 10.0 mi NW 25.3 mph 32.2 mph N/A   Clear
6:54 PM 84.9 °F 39.0 °F 20% 29.64 in 10.0 mi NNW 23.0 mph - N/A   Clear
7:54 PM 80.1 °F 37.9 °F 22% 29.66 in 10.0 mi NNW 16.1 mph - N/A   Clear
8:54 PM 69.1 °F 39.0 °F 33% 29.69 in 10.0 mi North 6.9 mph - N/A   Clear
9:54 PM 64.0 °F 39.0 °F 40% 29.73 in 10.0 mi North - - N/A   Clear
10:54 PM 62.1 °F 39.0 °F 43% 29.75 in 10.0 mi NW 8.1 mph - N/A   Clear
11:54 PM 60.1 °F 39.0 °F 46% 29.76 in 10.0 mi NW 8.1 mph - N/A   Clear